[[{"header":{"parameterUnit":"m.s-1","parameterCategory":2,"la1":30.2991,"la2":30.254,"lo1":-89.0895,"lo2":-89.0444,"dy":0.0017,"dx":0.0017,"nx":28,"ny":28,"refTime":"2024-08-26T09:00:00:Z","depth":"0","parameterNumber":2,"parameterNumberName":"U-component_of_CURRENTS"},"data":[0,0,0,0,0,0,0,0,0,0,0,0,0,0,0,0,0,0,0,0,0,0,0,0,0,0,0,0,0,0,0,0,0,0,0,0,0,0,0,0,0,0,0,0,0,0,0,0,0,0,0,0,0,0,0,0,0,0,0.1882,0.1883,0,0.1928,0.1928,0.1929,0.1924,0.1924,0.1923,0.1923,0.1913,0.1913,0.1913,0,0,0,0,0,0,0,0,0,0,0,0,0,0.1813,0.1814,0.1882,0.1883,0.1884,0.1928,0.1928,0.1929,0.1924,0.1924,0.1923,0.1923,0.1913,0.1913,0.1913,0,0,0,0,0,0,0,0,0,0,0,0,0,0.1847,0.1815,0.1882,0.1889,0.189,0.1928,0.1928,0.1929,0.1924,0.1924,0.1923,0.1922,0.1913,0.1913,0.1913,0.1928,0,0,0.1914,0.1914,0,0,0,0,0,0,0,0,0.1845,0.1849,0.1887,0.1889,0.189,0.1922,0.1901,0.1927,0.1924,0.1908,0.1923,0.1922,0.1913,0.1913,0.192,0.1928,0.1928,0.1914,0.1914,0.1914,0.1914,0,0,0,0,0,0,0,0.1843,0.1847,0.1897,0.1888,0.189,0.1898,0.1901,0.1906,0.1911,0.191,0.191,0.192,0.1913,0.192,0.192,0.1927,0.1914,0.1914,0.1914,0.1915,0.1965,0.1966,0,0,0,0,0,0,0.1842,0.1845,0.1896,0.1899,0.1869,0.19,0.1903,0.191,0.1912,0.1913,0.1921,0.192,0.192,0.192,0.1919,0.1953,0.1914,0.1915,0.1915,0.1964,0.1965,0.1967,0,0,0,0,0,0,0.1841,0.1846,0.1894,0.1875,0.1882,0.1902,0.1909,0.1912,0.1921,0.1921,0.192,0.1928,0.1919,0.1919,0.193,0.1951,0.1915,0.1915,0.1963,0.1964,0.1966,0.2009,0,0,0,0,0,0,0.1838,0.1845,0.1849,0.1875,0.1884,0.1922,0.191,0.1913,0.193,0.1929,0.1928,0.1926,0.1919,0.193,0.1931,0.1951,0.1915,0.1961,0.1963,0.1965,0.2006,0.2012,0.2017,0,0,0,0,0,0.1836,0.1848,0.1849,0.1855,0.1888,0.1923,0.1928,0.1937,0.1931,0.1941,0.194,0.1926,0.1945,0.1931,0.1932,0.1953,0.196,0.1963,0.1965,0.2003,0.2011,0.2017,0,0,0,0,0,0,0.1824,0.185,0.1851,0.1871,0.1896,0.1923,0.1937,0.1942,0.1951,0.1948,0.194,0.1939,0.1958,0.1951,0.1937,0.1975,0.1951,0.1954,0.198,0.1987,0.1992,0.2002,0.1915,0,0,0,0,0,0.1823,0.1836,0.1864,0.1881,0.1895,0.1915,0.193,0.1938,0.1953,0.1956,0.1956,0.1959,0.1971,0.1974,0.1981,0.2,0.2017,0.2015,0.202,0.2025,0.2034,0.2075,0.2086,0.1975,0.1975,0.1975,0,0,0.1822,0.1841,0.1847,0.188,0.1899,0.1924,0.1922,0.195,0.197,0.1954,0.1974,0.1977,0.1981,0.2004,0.2012,0.1999,0.2069,0.2028,0.2032,0.2039,0.2079,0.209,0.21,0.1977,0.1977,0.1977,0,0,0.1837,0.1847,0.1863,0.1886,0.192,0.1936,0.1945,0.1974,0.1984,0.2006,0.2004,0.2022,0.203,0.2045,0.2052,0.2093,0.2098,0.2094,0.2128,0.2169,0.2178,0.2186,0.2239,0.2252,0.2095,0.2096,0.2096,0,0.1834,0.1861,0.1875,0.1902,0.1923,0.1941,0.1968,0.1988,0.2015,0.2031,0.2015,0.2056,0.2053,0.2098,0.2111,0.2106,0.2134,0.2101,0.2176,0.2185,0.2193,0.2245,0.2258,0.2098,0.2098,0.2097,0.2097,0,0.1865,0.1885,0.1902,0.1936,0.1959,0.1989,0.2017,0.2041,0.205,0.2068,0.2109,0.2114,0.2141,0.2144,0.2138,0.2198,0.2203,0.2179,0.2159,0.2206,0.2258,0.2272,0.2101,0.21,0.21,0.2099,0,0,0.1861,0.1911,0.1916,0.1937,0.198,0.2004,0.2043,0.2087,0.2122,0.2138,0.2184,0.2205,0.2213,0.2223,0.2225,0.2255,0.2335,0.2243,0.2244,0.2296,0.2443,0.2475,0.2493,0.2325,0.2327,0.2329,0.2463,0,0.1881,0.1929,0.195,0.1995,0.2022,0.2052,0.209,0.2129,0.2159,0.2207,0.2227,0.2267,0.2243,0.2265,0.2293,0.2327,0.237,0.2302,0.2389,0.2392,0.2415,0.2509,0.2373,0.2483,0.2476,0.2478,0.2479,0,0.1903,0.1932,0.1974,0.203,0.2045,0.2074,0.214,0.2179,0.2246,0.227,0.2315,0.2334,0.2396,0.2357,0.245,0.2411,0.2436,0.2453,0.2458,0.2482,0.245,0.2431,0.2507,0.2463,0.25,0.2498,0.2497,0,0.1891,0.1951,0.1982,0.2,0.2063,0.2092,0.2131,0.2198,0.2241,0.232,0.2361,0.2423,0.2471,0.2508,0.2552,0.2509,0.2654,0.2595,0.2653,0.2656,0.2555,0.2545,0.2595,0.2666,0.2665,0.2665,0.2664,0,0.1901,0.1927,0.1981,0.1997,0.2044,0.2092,0.2151,0.2201,0.2284,0.2349,0.2396,0.2467,0.2511,0.2592,0.2604,0.2698,0.2704,0.2695,0.2704,0.2569,0.2559,0.2526,0.2492,0.267,0.2669,0.2668,0.2667,0,0.1876,0.1913,0.1951,0.2015,0.2035,0.2069,0.2152,0.22,0.2286,0.2377,0.2409,0.2527,0.2649,0.2703,0.2791,0.2785,0.2783,0.2872,0.2726,0.2716,0.2713,0.2686,0.2673,0.2586,0.2961,0.2962,0.2964,0,0.1864,0.1881,0.1943,0.1964,0.1991,0.2047,0.2086,0.2181,0.2238,0.2415,0.2461,0.2622,0.2721,0.2887,0.2918,0.299,0.2869,0.2893,0.2782,0.2737,0.2712,0.2598,0.2514,0.2666,0.2665,0.2664,0.2664,0,0.1833,0.1857,0.1883,0.1926,0.1965,0.2013,0.2085,0.2127,0.2256,0.2345,0.2491,0.2595,0.2797,0.2831,0.2952,0.2961,0.2757,0.2881,0.2851,0.2525,0.2382,0.2293,0.2571,0.2656,0.2657,0.2657,0.2658,0.2658,0.1797,0.1809,0.1844,0.188,0.1921,0.1965,0.198,0.207,0.2151,0.2265,0.2424,0.2534,0.2676,0.2842,0.285,0.281,0.2777,0.2689,0.2675,0.2577,0.2441,0.2737,0.2822,0.2824,0.2825,0.2826,0.2827,0,0.1742,0.1766,0.1798,0.1829,0.1844,0.1897,0.1962,0.1961,0.2016,0.2168,0.2269,0.2419,0.2494,0.2603,0.267,0.2592,0.2428,0.2517,0.2282,0.222,0.2501,0.2436,0.2419,0.2419,0.2419,0.2419,0.2419,0.2419,0.1714,0.1717,0.1737,0.1736,0.176,0.1748,0.1766,0.1784,0.1863,0.1951,0.2046,0.2164,0.2419,0.2553,0.2525,0.2449,0.2238,0.2145,0.2162,0.2331,0.2343,0.2355,0.2286,0.2238,0.2238,0.1734,0.173,0.1727]},{"header":{"parameterUnit":"m.s-1","parameterCategory":2,"la1":30.2991,"la2":30.254,"lo1":-89.0895,"lo2":-89.0444,"dy":0.0017,"dx":0.0017,"nx":28,"ny":28,"refTime":"2024-08-26T09:00:00:Z","depth":"0","parameterNumber":3,"parameterNumberName":"V-component_of_CURRENTS"},"data":[0,0,0,0,0,0,0,0,0,0,0,0,0,0,0,0,0,0,0,0,0,0,0,0,0,0,0,0,0,0,0,0,0,0,0,0,0,0,0,0,0,0,0,0,0,0,0,0,0,0,0,0,0,0,0,0,0,0,-0.0478,-0.0478,0,-0.0529,-0.053,-0.053,-0.0571,-0.0571,-0.0572,-0.0572,-0.0644,-0.0645,-0.0647,0,0,0,0,0,0,0,0,0,0,0,0,0,-0.0446,-0.0447,-0.0478,-0.0479,-0.0479,-0.0529,-0.053,-0.0531,-0.0571,-0.0571,-0.0572,-0.0572,-0.0643,-0.0645,-0.0647,0,0,0,0,0,0,0,0,0,0,0,0,0,-0.0476,-0.0447,-0.0478,-0.0504,-0.0507,-0.0529,-0.053,-0.0531,-0.0571,-0.0571,-0.0572,-0.0572,-0.0643,-0.0645,-0.0647,-0.0655,0,0,-0.0655,-0.0656,0,0,0,0,0,0,0,0,-0.0475,-0.0478,-0.05,-0.0502,-0.0505,-0.0543,-0.0545,-0.0573,-0.0571,-0.0548,-0.0572,-0.0572,-0.0611,-0.0616,-0.0626,-0.0658,-0.0661,-0.0655,-0.0657,-0.0658,-0.0659,0,0,0,0,0,0,0,-0.0473,-0.0476,-0.05,-0.05,-0.0504,-0.0524,-0.0528,-0.0551,-0.0578,-0.055,-0.0553,-0.0556,-0.0613,-0.0624,-0.0628,-0.0662,-0.0655,-0.0657,-0.0659,-0.066,-0.0703,-0.0703,0,0,0,0,0,0,-0.0461,-0.0474,-0.0498,-0.0501,-0.0489,-0.0524,-0.0529,-0.0532,-0.0578,-0.0584,-0.0556,-0.0558,-0.0619,-0.0625,-0.0631,-0.0643,-0.0658,-0.066,-0.0662,-0.0703,-0.0703,-0.0703,0,0,0,0,0,0,-0.046,-0.0463,-0.0496,-0.0487,-0.0493,-0.0523,-0.0526,-0.0532,-0.054,-0.0581,-0.0589,-0.0557,-0.062,-0.0628,-0.0648,-0.0646,-0.0661,-0.0664,-0.0704,-0.0703,-0.0703,-0.0666,0,0,0,0,0,0,-0.0459,-0.0462,-0.0457,-0.0487,-0.0493,-0.0499,-0.0526,-0.0533,-0.0541,-0.0544,-0.0585,-0.0592,-0.0621,-0.0644,-0.065,-0.065,-0.0666,-0.0704,-0.0704,-0.0703,-0.0668,-0.0664,-0.0661,0,0,0,0,0,-0.0458,-0.0441,-0.0457,-0.0459,-0.0486,-0.0498,-0.0503,-0.0528,-0.054,-0.0538,-0.0569,-0.0591,-0.0644,-0.0645,-0.0653,-0.0653,-0.0705,-0.0704,-0.0703,-0.0669,-0.0665,-0.0661,0,0,0,0,0,0,-0.0419,-0.0444,-0.0462,-0.0453,-0.0472,-0.0504,-0.0499,-0.052,-0.0543,-0.0544,-0.0588,-0.0597,-0.0614,-0.0635,-0.0635,-0.0662,-0.0677,-0.0678,-0.0649,-0.0645,-0.0642,-0.0622,-0.0668,0,0,0,0,0,-0.041,-0.0406,-0.0437,-0.0429,-0.0435,-0.0468,-0.0475,-0.0492,-0.0517,-0.0527,-0.0559,-0.0589,-0.0617,-0.0631,-0.0656,-0.067,-0.0689,-0.0674,-0.0671,-0.0668,-0.0656,-0.0691,-0.069,-0.07,-0.07,-0.07,0,0,-0.0393,-0.0404,-0.0403,-0.0421,-0.0437,-0.0437,-0.0473,-0.0475,-0.0479,-0.0531,-0.0542,-0.0578,-0.0618,-0.0636,-0.0645,-0.0654,-0.0674,-0.0667,-0.0664,-0.0654,-0.069,-0.069,-0.0689,-0.0699,-0.07,-0.07,0,0,-0.0351,-0.0367,-0.0352,-0.0364,-0.0382,-0.0404,-0.0402,-0.0433,-0.045,-0.0467,-0.0508,-0.0541,-0.0578,-0.0612,-0.0633,-0.0625,-0.0656,-0.0632,-0.0602,-0.0637,-0.0637,-0.0636,-0.0654,-0.0656,-0.0631,-0.0631,-0.0631,0,-0.0333,-0.0319,-0.0348,-0.0337,-0.0341,-0.0385,-0.0372,-0.0394,-0.0429,-0.0442,-0.0461,-0.0528,-0.0567,-0.0598,-0.06,-0.0619,-0.0635,-0.0616,-0.0633,-0.0633,-0.0634,-0.0653,-0.0655,-0.0629,-0.0629,-0.063,-0.063,0,-0.0282,-0.0276,-0.0264,-0.0271,-0.0279,-0.0271,-0.0308,-0.0319,-0.0348,-0.0379,-0.0414,-0.0474,-0.0513,-0.0537,-0.0568,-0.0592,-0.0601,-0.0625,-0.0642,-0.0631,-0.0651,-0.0654,-0.0626,-0.0627,-0.0628,-0.0628,0,0,-0.0236,-0.0231,-0.0229,-0.0224,-0.0243,-0.0245,-0.0248,-0.027,-0.0272,-0.0323,-0.0334,-0.0404,-0.0443,-0.0468,-0.052,-0.0556,-0.0584,-0.0587,-0.059,-0.0603,-0.0646,-0.0618,-0.0619,-0.0613,-0.0614,-0.0614,-0.0657,0,-0.0192,-0.0157,-0.0169,-0.0144,-0.0133,-0.017,-0.0168,-0.0196,-0.0229,-0.0251,-0.0325,-0.0354,-0.0415,-0.0435,-0.0483,-0.0557,-0.0591,-0.0569,-0.0656,-0.0658,-0.0634,-0.0621,-0.0581,-0.0612,-0.066,-0.0661,-0.0661,0,-0.014,-0.0126,-0.0087,-0.0085,-0.0083,-0.0075,-0.0085,-0.0093,-0.0137,-0.0164,-0.0214,-0.0267,-0.0332,-0.0383,-0.0499,-0.0481,-0.0553,-0.0614,-0.0617,-0.0603,-0.0635,-0.0633,-0.0617,-0.0761,-0.0666,-0.0666,-0.0666,0,-0.0094,-0.0073,-0.0039,-0.0037,-0.0037,-0.0027,-0.0034,-0.0063,-0.006,-0.0108,-0.0109,-0.0201,-0.0233,-0.0343,-0.0464,-0.0483,-0.0581,-0.0627,-0.0668,-0.0667,-0.0654,-0.0651,-0.0784,-0.0701,-0.0701,-0.07,-0.07,0,-0.0041,-0.0019,-0.0012,0.0007,0.0046,0.0021,0.0052,0.0031,0.0017,0.004,-0.006,-0.0053,-0.0223,-0.0298,-0.0429,-0.0542,-0.0555,-0.0651,-0.0674,-0.0639,-0.0633,-0.0775,-0.0865,-0.0702,-0.0702,-0.0701,-0.0701,0,0.0009,0.0015,0.0052,0.0065,0.0074,0.0099,0.0119,0.014,0.0113,0.0144,0.0138,0.006,-0.0027,-0.0189,-0.0355,-0.0474,-0.0674,-0.0641,-0.0575,-0.059,-0.0762,-0.085,-0.0991,-0.1055,-0.0697,-0.0697,-0.0697,0,0.004,0.0067,0.0101,0.0133,0.0146,0.0178,0.0209,0.0193,0.0225,0.0229,0.0259,0.019,0.0178,-0.0053,-0.0272,-0.0476,-0.064,-0.0592,-0.0627,-0.0754,-0.0871,-0.0939,-0.0988,-0.0601,-0.06,-0.0599,-0.0598,0,0.0097,0.0109,0.0142,0.0208,0.0251,0.0297,0.0341,0.0385,0.0388,0.0434,0.049,0.0487,0.0286,0.0117,-0.017,-0.0332,-0.0681,-0.0577,-0.0738,-0.0821,-0.0876,-0.0952,-0.0587,-0.059,-0.059,-0.0591,-0.0591,-0.0592,0.0141,0.0176,0.0223,0.0287,0.0342,0.0417,0.0474,0.0539,0.0627,0.0711,0.0688,0.0721,0.044,0.0072,-0.0163,-0.058,-0.0614,-0.0717,-0.0816,-0.0876,-0.0928,-0.0526,-0.0536,-0.0537,-0.0537,-0.0538,-0.0538,0,0.0198,0.0235,0.0297,0.0378,0.0454,0.0465,0.0567,0.0642,0.0782,0.0862,0.0931,0.0826,0.0487,0.0089,-0.0451,-0.0759,-0.0898,-0.0954,-0.1066,-0.1108,-0.0772,-0.0758,-0.078,-0.078,-0.078,-0.078,-0.078,-0.078,0.023,0.03,0.033,0.0463,0.0524,0.0633,0.0702,0.0825,0.0912,0.1036,0.1067,0.1049,0.0753,-0.0204,-0.0901,-0.1076,-0.1311,-0.1343,-0.1489,-0.1286,-0.1272,-0.1259,-0.1268,-0.1397,-0.1398,-0.1769,-0.1772,-0.1775]}],[{"header":{"parameterUnit":"m.s-1","parameterCategory":2,"la1":30.2991,"la2":30.254,"lo1":-89.0895,"lo2":-89.0444,"dy":0.0017,"dx":0.0017,"nx":28,"ny":28,"refTime":"2024-08-26T09:00:00:Z","depth":"2","parameterNumber":2,"parameterNumberName":"U-component_of_CURRENTS"},"data":[0,0,0,0,0,0,0,0,0,0,0,0,0,0,0,0,0,0,0,0,0,0,0,0,0,0,0,0,0,0,0,0,0,0,0,0,0,0,0,0,0,0,0,0,0,0,0,0,0,0,0,0,0,0,0,0,0,0,0.1895,0.1896,0,0.1945,0.1945,0.1946,0.1944,0.1944,0.1943,0.1943,0.1942,0.1942,0.1943,0,0,0,0,0,0,0,0,0,0,0,0,0,0.1833,0.1834,0.1895,0.1896,0.1897,0.1945,0.1945,0.1946,0.1945,0.1944,0.1943,0.1943,0.1942,0.1942,0.1943,0,0,0,0,0,0,0,0,0,0,0,0,0,0.1867,0.1834,0.1895,0.1903,0.1905,0.1945,0.1945,0.1946,0.1945,0.1944,0.1943,0.1942,0.1942,0.1942,0.1943,0.1962,0,0,0.1945,0.1945,0,0,0,0,0,0,0,0,0.1865,0.1869,0.1901,0.1903,0.1905,0.194,0.1923,0.1949,0.1945,0.1927,0.1943,0.1942,0.1938,0.1939,0.1948,0.1962,0.1962,0.1945,0.1945,0.1946,0.1946,0,0,0,0,0,0,0,0.1863,0.1867,0.1913,0.1902,0.1904,0.1917,0.192,0.1928,0.1934,0.1929,0.1929,0.1938,0.1938,0.1947,0.1948,0.1962,0.1945,0.1945,0.1946,0.1946,0.2002,0.2003,0,0,0,0,0,0,0.186,0.1865,0.1911,0.1914,0.1885,0.1918,0.1922,0.1927,0.1935,0.1936,0.1939,0.1938,0.1947,0.1947,0.1948,0.1985,0.1946,0.1946,0.1947,0.2001,0.2002,0.2003,0,0,0,0,0,0,0.1858,0.1863,0.1909,0.1893,0.1899,0.192,0.1926,0.1929,0.1942,0.1944,0.1943,0.1949,0.1946,0.1947,0.1956,0.1985,0.1946,0.1947,0.2,0.2001,0.2003,0.2051,0,0,0,0,0,0,0.1856,0.1862,0.1868,0.1892,0.19,0.1934,0.1927,0.193,0.1949,0.1948,0.1953,0.1951,0.1946,0.1956,0.1957,0.1985,0.1948,0.1998,0.2,0.2002,0.2048,0.2054,0.2059,0,0,0,0,0,0.1854,0.1864,0.1868,0.1874,0.1906,0.1935,0.194,0.1951,0.195,0.1959,0.196,0.1952,0.197,0.1957,0.1958,0.1987,0.1997,0.2,0.2002,0.2045,0.2053,0.2059,0,0,0,0,0,0,0.1837,0.1866,0.187,0.1887,0.191,0.1936,0.195,0.1957,0.1968,0.1966,0.1962,0.1961,0.1983,0.1977,0.1963,0.2009,0.1984,0.1987,0.2017,0.2024,0.2029,0.2038,0.1948,0,0,0,0,0,0.1837,0.1854,0.188,0.1896,0.1908,0.1931,0.1945,0.1954,0.1967,0.1972,0.1977,0.1983,0.1996,0.2001,0.2009,0.2032,0.205,0.2053,0.2059,0.2063,0.2072,0.2117,0.2128,0.2012,0.2012,0.2011,0,0,0.1835,0.1855,0.1863,0.1894,0.1914,0.1938,0.1937,0.1963,0.1984,0.197,0.1997,0.2003,0.2006,0.2033,0.2043,0.203,0.2109,0.2066,0.2071,0.2077,0.2121,0.2132,0.2142,0.2013,0.2013,0.2013,0,0,0.1844,0.1858,0.1876,0.1897,0.1931,0.1948,0.1957,0.1987,0.1999,0.2024,0.2025,0.2046,0.206,0.2077,0.2084,0.2126,0.2137,0.2131,0.2168,0.2211,0.2221,0.223,0.2284,0.2297,0.2134,0.2134,0.2134,0,0.1843,0.1867,0.1886,0.1911,0.1933,0.1953,0.1978,0.1999,0.2028,0.2047,0.2034,0.2084,0.2084,0.2131,0.2145,0.214,0.217,0.2141,0.222,0.2229,0.2237,0.2289,0.2303,0.2137,0.2136,0.2136,0.2136,0,0.1866,0.1887,0.1902,0.1939,0.1963,0.199,0.2021,0.2048,0.2065,0.2084,0.2132,0.214,0.2173,0.218,0.2173,0.224,0.2245,0.2222,0.2203,0.2252,0.2304,0.2318,0.214,0.2139,0.2139,0.2138,0,0,0.1861,0.1909,0.1914,0.1937,0.1982,0.2005,0.2047,0.2094,0.2133,0.2155,0.2207,0.2232,0.2247,0.2257,0.2265,0.2299,0.2385,0.229,0.2291,0.2345,0.25,0.2434,0.2443,0.2379,0.2381,0.2383,0.2518,0,0.1876,0.192,0.1943,0.1988,0.2014,0.205,0.209,0.2133,0.2171,0.2226,0.225,0.2297,0.2274,0.2304,0.2336,0.2374,0.2421,0.2351,0.2443,0.2446,0.2383,0.2456,0.2259,0.2356,0.2531,0.2534,0.2535,0,0.1891,0.1919,0.1961,0.202,0.2036,0.2069,0.2147,0.2186,0.2261,0.229,0.2343,0.2367,0.2435,0.24,0.2499,0.2459,0.2489,0.2509,0.2514,0.2444,0.2405,0.2332,0.2374,0.2558,0.2557,0.2555,0.2553,0,0.1876,0.1935,0.1968,0.1987,0.2053,0.2089,0.2134,0.2208,0.2257,0.2345,0.2395,0.246,0.2515,0.2556,0.2597,0.2563,0.2701,0.2656,0.263,0.2627,0.2471,0.2449,0.2732,0.2731,0.2731,0.2731,0.273,0,0.1882,0.191,0.1968,0.1984,0.2036,0.2091,0.2161,0.2215,0.2309,0.2372,0.2434,0.2501,0.2557,0.2634,0.2648,0.2692,0.2749,0.266,0.2661,0.2482,0.2461,0.2633,0.262,0.2736,0.2735,0.2734,0.2733,0,0.1857,0.1894,0.1933,0.2002,0.2027,0.2067,0.2168,0.2223,0.232,0.2412,0.2447,0.2565,0.2664,0.272,0.2805,0.2764,0.2803,0.2803,0.2595,0.2567,0.269,0.2678,0.2794,0.2793,0.2792,0.2791,0.279,0,0.1843,0.1862,0.1927,0.1953,0.1986,0.2055,0.2101,0.2207,0.227,0.244,0.2482,0.2625,0.2676,0.279,0.2784,0.2819,0.2843,0.2621,0.2501,0.2709,0.2699,0.2688,0.2678,0.2331,0.2327,0.2323,0.232,0,0.1815,0.1842,0.187,0.1917,0.1966,0.2017,0.2101,0.2147,0.2276,0.2349,0.2454,0.2513,0.2653,0.2588,0.2644,0.2627,0.2591,0.2548,0.2844,0.2331,0.2279,0.2267,0.2271,0.2288,0.2292,0.2294,0.2296,0.2297,0.1784,0.1794,0.1832,0.1872,0.1923,0.1962,0.1978,0.2058,0.2117,0.2193,0.2317,0.2332,0.2389,0.237,0.233,0.2317,0.248,0.2334,0.2343,0.2356,0.2263,0.2211,0.2192,0.2194,0.2196,0.2198,0.22,0,0.1726,0.1751,0.1789,0.1819,0.1833,0.1898,0.1955,0.1935,0.1941,0.2039,0.2072,0.1932,0.1914,0.2,0.1941,0.1942,0.1906,0.1852,0.1776,0.1811,0.1841,0.1718,0.1504,0.1502,0.1499,0.1497,0,0,0.1696,0.1698,0.1715,0.1711,0.1744,0.173,0.1739,0.1712,0.1744,0.1699,0.1697,0.1813,0.1931,0.1672,0.1663,0.1574,0.1674,0.1521,0.2087,0.2034,0.206,0.2139,0.1992,0,0,0,0,0]},{"header":{"parameterUnit":"m.s-1","parameterCategory":2,"la1":30.2991,"la2":30.254,"lo1":-89.0895,"lo2":-89.0444,"dy":0.0017,"dx":0.0017,"nx":28,"ny":28,"refTime":"2024-08-26T09:00:00:Z","depth":"2","parameterNumber":3,"parameterNumberName":"V-component_of_CURRENTS"},"data":[0,0,0,0,0,0,0,0,0,0,0,0,0,0,0,0,0,0,0,0,0,0,0,0,0,0,0,0,0,0,0,0,0,0,0,0,0,0,0,0,0,0,0,0,0,0,0,0,0,0,0,0,0,0,0,0,0,0,-0.0171,-0.0172,0,-0.0218,-0.0219,-0.022,-0.027,-0.027,-0.027,-0.0271,-0.0356,-0.0358,-0.036,0,0,0,0,0,0,0,0,0,0,0,0,0,-0.0168,-0.0167,-0.0171,-0.0172,-0.0172,-0.0218,-0.0219,-0.022,-0.027,-0.027,-0.027,-0.0271,-0.0356,-0.0358,-0.036,0,0,0,0,0,0,0,0,0,0,0,0,0,-0.0191,-0.0167,-0.0171,-0.0199,-0.0202,-0.0218,-0.0219,-0.022,-0.0269,-0.027,-0.0271,-0.0271,-0.0355,-0.0358,-0.0361,-0.0367,0,0,-0.0369,-0.0371,0,0,0,0,0,0,0,0,-0.0189,-0.0191,-0.0195,-0.0197,-0.0201,-0.0236,-0.0249,-0.027,-0.0269,-0.0248,-0.0271,-0.0271,-0.0317,-0.0323,-0.0335,-0.0371,-0.0375,-0.037,-0.0371,-0.0373,-0.0373,0,0,0,0,0,0,0,-0.0187,-0.019,-0.0194,-0.0195,-0.0199,-0.0224,-0.0228,-0.0254,-0.0282,-0.025,-0.0252,-0.0252,-0.0319,-0.0332,-0.0337,-0.0376,-0.037,-0.0372,-0.0374,-0.0375,-0.0428,-0.0427,0,0,0,0,0,0,-0.0172,-0.0188,-0.0192,-0.0195,-0.0192,-0.0223,-0.0228,-0.0227,-0.0281,-0.0288,-0.0251,-0.0254,-0.0327,-0.0334,-0.0341,-0.0361,-0.0373,-0.0375,-0.0377,-0.0428,-0.0428,-0.0427,0,0,0,0,0,0,-0.0171,-0.0171,-0.019,-0.019,-0.0193,-0.0222,-0.0221,-0.0227,-0.0243,-0.0281,-0.029,-0.026,-0.0327,-0.0336,-0.0358,-0.0364,-0.0377,-0.0379,-0.0428,-0.0428,-0.0427,-0.0395,0,0,0,0,0,0,-0.0171,-0.0171,-0.0167,-0.0188,-0.0193,-0.0193,-0.022,-0.0228,-0.0239,-0.0244,-0.0291,-0.03,-0.0329,-0.0353,-0.0361,-0.0368,-0.0382,-0.0429,-0.0428,-0.0428,-0.0397,-0.0394,-0.0391,0,0,0,0,0,-0.0171,-0.0152,-0.0167,-0.0168,-0.0186,-0.0192,-0.0197,-0.0222,-0.0239,-0.024,-0.0271,-0.0298,-0.0355,-0.0355,-0.0364,-0.0373,-0.0429,-0.0428,-0.0428,-0.0398,-0.0394,-0.0391,0,0,0,0,0,0,-0.0141,-0.0156,-0.0173,-0.0159,-0.0174,-0.0199,-0.0199,-0.0219,-0.0245,-0.0251,-0.0293,-0.0303,-0.0326,-0.0347,-0.0347,-0.0384,-0.0397,-0.0398,-0.0371,-0.0368,-0.0366,-0.0349,-0.0384,0,0,0,0,0,-0.0134,-0.0132,-0.015,-0.0141,-0.0145,-0.0175,-0.0182,-0.02,-0.0222,-0.0235,-0.0269,-0.0302,-0.0329,-0.0346,-0.0372,-0.0391,-0.0411,-0.0402,-0.0399,-0.0396,-0.0388,-0.0419,-0.0418,-0.0425,-0.0425,-0.0425,0,0,-0.0123,-0.0128,-0.013,-0.0136,-0.0152,-0.0151,-0.0181,-0.0186,-0.0191,-0.0239,-0.0258,-0.0293,-0.033,-0.0352,-0.0365,-0.0373,-0.0406,-0.0395,-0.0393,-0.0386,-0.0418,-0.0417,-0.0417,-0.0424,-0.0424,-0.0424,0,0,-0.0092,-0.0102,-0.0092,-0.01,-0.0113,-0.0131,-0.013,-0.0157,-0.0175,-0.0194,-0.0231,-0.0265,-0.0306,-0.0336,-0.0355,-0.035,-0.0388,-0.0362,-0.034,-0.037,-0.037,-0.037,-0.0398,-0.0401,-0.0363,-0.0363,-0.0363,0,-0.0087,-0.0066,-0.009,-0.0078,-0.0079,-0.0118,-0.0107,-0.0126,-0.016,-0.017,-0.0193,-0.0258,-0.0298,-0.0323,-0.0328,-0.0345,-0.0366,-0.0351,-0.0367,-0.0367,-0.0368,-0.0397,-0.0401,-0.0361,-0.0362,-0.0362,-0.0362,0,-0.0042,-0.0033,-0.0023,-0.0027,-0.0035,-0.0028,-0.0056,-0.0068,-0.0099,-0.0124,-0.0158,-0.0214,-0.0253,-0.0276,-0.0305,-0.0329,-0.0343,-0.0359,-0.0376,-0.0365,-0.0397,-0.0401,-0.0359,-0.036,-0.036,-0.0361,0,0,-0.0014,0.0001,0.0003,0.001,-0.0006,-0.0006,-0.0011,-0.0025,-0.0026,-0.0077,-0.0083,-0.0152,-0.0191,-0.0215,-0.0262,-0.0297,-0.0333,-0.0329,-0.0331,-0.0357,-0.0399,-0.0356,-0.0357,-0.0352,-0.0353,-0.0353,-0.042,0,0.0022,0.0059,0.0053,0.0075,0.0089,0.0058,0.0064,0.0042,0.0006,-0.0011,-0.0074,-0.0105,-0.0164,-0.019,-0.0233,-0.0301,-0.0342,-0.0313,-0.0405,-0.0407,-0.037,-0.036,-0.0345,-0.0398,-0.0424,-0.0425,-0.0426,0,0.0069,0.0087,0.012,0.0133,0.0137,0.0141,0.0134,0.013,0.0097,0.0071,0.0022,-0.003,-0.0091,-0.0142,-0.0255,-0.0233,-0.0313,-0.037,-0.0375,-0.0346,-0.0372,-0.0412,-0.0405,-0.0433,-0.0433,-0.0432,-0.0432,0,0.0108,0.0133,0.0162,0.0166,0.0176,0.0182,0.0178,0.0153,0.016,0.0112,0.0109,0.0027,-0.0008,-0.0113,-0.0228,-0.0251,-0.0337,-0.0387,-0.0425,-0.0423,-0.0432,-0.0429,-0.0467,-0.0467,-0.0467,-0.0467,-0.0467,0,0.0156,0.0177,0.0183,0.0202,0.0243,0.022,0.0247,0.0234,0.0222,0.0252,0.0148,0.016,-0.0003,-0.0069,-0.0194,-0.0299,-0.0314,-0.0412,-0.0432,-0.0419,-0.0415,-0.0461,-0.046,-0.047,-0.0469,-0.0469,-0.0468,0,0.0196,0.0202,0.024,0.0256,0.0265,0.0288,0.0307,0.0329,0.0301,0.0334,0.0326,0.0257,0.0175,0.0026,-0.0131,-0.0238,-0.0356,-0.0393,-0.0358,-0.0372,-0.0441,-0.0437,-0.0466,-0.0465,-0.0464,-0.0463,-0.0462,0,0.0224,0.0247,0.0284,0.0312,0.0321,0.0349,0.0382,0.0373,0.0403,0.0415,0.0451,0.0379,0.0363,0.0155,-0.0053,-0.0253,-0.0298,-0.0366,-0.0411,-0.0421,-0.0439,-0.0436,-0.0434,-0.0426,-0.0425,-0.0425,-0.0424,0,0.0275,0.0283,0.0316,0.0376,0.0415,0.0466,0.0507,0.0552,0.0566,0.0605,0.0661,0.0647,0.0449,0.0266,-0.0001,-0.0143,-0.0334,-0.0356,-0.038,-0.0407,-0.0383,-0.0401,-0.04,-0.0418,-0.0418,-0.0419,-0.0419,-0.0419,0.0313,0.0346,0.0388,0.0447,0.05,0.058,0.0635,0.0694,0.078,0.0832,0.0821,0.0794,0.057,0.0231,0.0002,-0.0262,-0.0271,-0.0382,-0.0385,-0.0389,-0.035,-0.0323,-0.0341,-0.0341,-0.0341,-0.0341,-0.0341,0,0.0366,0.0399,0.0454,0.0532,0.0603,0.0615,0.0722,0.0779,0.0901,0.0933,0.096,0.0768,0.0557,0.0294,-0.0085,-0.0302,-0.0357,-0.0374,-0.0402,-0.0405,-0.0409,-0.0374,-0.037,-0.0371,-0.0371,-0.0372,0,0,0.0398,0.046,0.0487,0.0609,0.0662,0.0765,0.0833,0.0919,0.0965,0.101,0.0986,0.091,0.0626,0.0352,0.0054,-0.0159,-0.0242,-0.0209,-0.0163,-0.0165,-0.0166,-0.0388,-0.0332,0,0,0,0,0]}],[{"header":{"parameterUnit":"m.s-1","parameterCategory":2,"la1":30.2991,"la2":30.254,"lo1":-89.0895,"lo2":-89.0444,"dy":0.0017,"dx":0.0017,"nx":28,"ny":28,"refTime":"2024-08-26T09:00:00:Z","depth":"4","parameterNumber":2,"parameterNumberName":"U-component_of_CURRENTS"},"data":[0,0,0,0,0,0,0,0,0,0,0,0,0,0,0,0,0,0,0,0,0,0,0,0,0,0,0,0,0,0,0,0,0,0,0,0,0,0,0,0,0,0,0,0,0,0,0,0,0,0,0,0,0,0,0,0,0,0,0.1083,0.1084,0,0.1141,0.1141,0.1142,0.1189,0.119,0.1191,0.1191,0.1246,0.1247,0.1248,0,0,0,0,0,0,0,0,0,0,0,0,0,0.098,0.0981,0.1083,0.1084,0.1085,0.1141,0.1141,0.1142,0.1189,0.119,0.1191,0.1192,0.1246,0.1247,0.1248,0,0,0,0,0,0,0,0,0,0,0,0,0,0.1028,0.0982,0.1083,0.1116,0.112,0.1141,0.1141,0.1142,0.1189,0.119,0.1191,0.1192,0.1246,0.1247,0.1248,0.1236,0,0,0.1252,0.1253,0,0,0,0,0,0,0,0,0.1025,0.1032,0.1111,0.1114,0.1118,0.1161,0.1125,0.1174,0.1189,0.1161,0.1191,0.1192,0.1218,0.1221,0.1228,0.1239,0.1241,0.1252,0.1253,0.1254,0.1254,0,0,0,0,0,0,0,0.1022,0.1029,0.1104,0.1112,0.1116,0.1117,0.1125,0.1134,0.1182,0.1163,0.1168,0.1176,0.122,0.1226,0.1229,0.1242,0.1252,0.1253,0.1254,0.1255,0.1342,0.1344,0,0,0,0,0,0,0.1019,0.1026,0.1102,0.1106,0.1075,0.1118,0.1127,0.1144,0.1182,0.1189,0.1176,0.1179,0.1224,0.1228,0.1231,0.1302,0.1254,0.1255,0.1255,0.1341,0.1342,0.1344,0,0,0,0,0,0,0.1017,0.1026,0.11,0.1068,0.1078,0.112,0.1138,0.1145,0.1182,0.1191,0.1198,0.1209,0.1224,0.123,0.1268,0.1301,0.1255,0.1256,0.1339,0.1341,0.1343,0.139,0,0,0,0,0,0,0.1014,0.1025,0.1048,0.1068,0.108,0.1132,0.1138,0.1146,0.1185,0.119,0.1221,0.1226,0.1226,0.1267,0.127,0.1302,0.1257,0.1337,0.134,0.1343,0.1386,0.1394,0.14,0,0,0,0,0,0.101,0.1033,0.1049,0.1059,0.1107,0.1133,0.1139,0.117,0.1186,0.1206,0.123,0.1226,0.1288,0.1269,0.1272,0.1306,0.1335,0.1339,0.1342,0.1383,0.1392,0.14,0,0,0,0,0,0,0.1001,0.1041,0.1058,0.1094,0.1122,0.1142,0.1169,0.1185,0.122,0.1235,0.1241,0.1247,0.1296,0.1294,0.1273,0.1341,0.1313,0.1317,0.1343,0.1351,0.1358,0.1361,0.1258,0,0,0,0,0,0.1008,0.1038,0.1071,0.1101,0.1121,0.115,0.117,0.1191,0.1218,0.1236,0.1256,0.1281,0.1307,0.1325,0.1343,0.1375,0.1376,0.1401,0.1408,0.1413,0.142,0.146,0.147,0.1356,0.1356,0.1356,0,0,0.101,0.1039,0.1055,0.1101,0.1129,0.1157,0.1165,0.1206,0.1234,0.1235,0.1286,0.1306,0.1322,0.1363,0.1385,0.1369,0.1445,0.1418,0.1422,0.1426,0.1464,0.1475,0.1485,0.1358,0.1358,0.1357,0,0,0.1022,0.106,0.109,0.1117,0.1166,0.1182,0.12,0.1239,0.1268,0.1311,0.1325,0.1362,0.1399,0.1415,0.1427,0.148,0.148,0.1498,0.1533,0.1572,0.1581,0.159,0.1594,0.1603,0.15,0.15,0.15,0,0.1027,0.1069,0.1101,0.1136,0.1162,0.1196,0.1229,0.1257,0.1303,0.1327,0.1338,0.141,0.1421,0.1469,0.1494,0.1494,0.1513,0.1499,0.158,0.1589,0.1597,0.1599,0.1608,0.1502,0.1502,0.1502,0.1502,0,0.1056,0.1097,0.1118,0.1173,0.1203,0.1238,0.1278,0.1314,0.135,0.1377,0.1445,0.1469,0.1512,0.1525,0.1528,0.1595,0.1588,0.1584,0.1557,0.1611,0.161,0.1618,0.1506,0.1505,0.1504,0.1504,0,0,0.1047,0.1123,0.1135,0.1163,0.1228,0.125,0.1302,0.1352,0.1392,0.1444,0.1496,0.1549,0.1577,0.1593,0.1609,0.1643,0.1706,0.1649,0.165,0.1647,0.1786,0.1694,0.1693,0.1732,0.1734,0.1736,0.1757,0,0.1064,0.1123,0.1162,0.1216,0.1247,0.1293,0.1329,0.1379,0.1434,0.149,0.1533,0.1592,0.16,0.1636,0.1676,0.1704,0.1734,0.17,0.1739,0.1739,0.1647,0.1702,0.1742,0.1763,0.1765,0.1766,0.1767,0,0.1082,0.112,0.1176,0.1233,0.1253,0.1289,0.136,0.1403,0.1482,0.1536,0.161,0.1642,0.1709,0.1707,0.1785,0.1773,0.1791,0.1801,0.1802,0.1707,0.1663,0.1703,0.1782,0.1781,0.178,0.1779,0.1778,0,0.1051,0.1126,0.1169,0.1193,0.1264,0.1299,0.134,0.1419,0.146,0.1578,0.1624,0.1708,0.1765,0.1805,0.1838,0.1827,0.191,0.1886,0.1812,0.1804,0.1857,0.1848,0.1941,0.1941,0.1941,0.1941,0.1941,0,0.1045,0.1082,0.1161,0.1186,0.1231,0.129,0.1352,0.1418,0.1501,0.1556,0.1653,0.17,0.1804,0.1851,0.1861,0.1865,0.1932,0.1826,0.1814,0.1874,0.1867,0.1862,0.1852,0.1942,0.1942,0.1941,0.1941,0,0.1006,0.1062,0.1112,0.1193,0.1221,0.1258,0.1345,0.1379,0.1487,0.1564,0.1601,0.1719,0.1798,0.1861,0.1933,0.1892,0.1895,0.1879,0.1933,0.1921,0.1749,0.1742,0.1781,0.1778,0.1776,0.1774,0.1772,0,0.0991,0.1014,0.1108,0.1135,0.118,0.1242,0.1271,0.1372,0.1414,0.155,0.157,0.1687,0.1759,0.1776,0.1858,0.1877,0.1865,0.1845,0.1801,0.1754,0.1739,0.1735,0.1731,0.1768,0.1768,0.1767,0.1766,0,0.0955,0.0999,0.104,0.1092,0.1137,0.1175,0.1236,0.1246,0.136,0.1464,0.1516,0.1559,0.1655,0.1715,0.1769,0.1769,0.1842,0.1819,0.1823,0.1782,0.1739,0.1725,0.1724,0.1758,0.1759,0.176,0.176,0,0.093,0.0945,0.0998,0.1037,0.1085,0.1093,0.1131,0.1171,0.1217,0.1366,0.1378,0.151,0.1634,0.1658,0.1684,0.1708,0.1679,0.1615,0.1629,0.1639,0.1588,0.1513,0.146,0,0,0,0,0,0.0895,0.0903,0.0932,0.0967,0.1006,0.1037,0.1096,0.1132,0.1234,0.1241,0.1308,0.1385,0.1458,0.1514,0.1514,0.1622,0.1683,0.1612,0.1614,0.1712,0.1721,0.1678,0,0,0,0,0,0,0.0872,0.09,0.0909,0.0898,0.0907,0.0937,0.0969,0.1035,0.1041,0.116,0.1207,0.1312,0.1402,0.1463,0.1495,0.1516,0.1489,0.1698,0.1695,0.1706,0.1715,0.1723,0.1681,0,0,0,0,0]},{"header":{"parameterUnit":"m.s-1","parameterCategory":2,"la1":30.2991,"la2":30.254,"lo1":-89.0895,"lo2":-89.0444,"dy":0.0017,"dx":0.0017,"nx":28,"ny":28,"refTime":"2024-08-26T09:00:00:Z","depth":"4","parameterNumber":3,"parameterNumberName":"V-component_of_CURRENTS"},"data":[0,0,0,0,0,0,0,0,0,0,0,0,0,0,0,0,0,0,0,0,0,0,0,0,0,0,0,0,0,0,0,0,0,0,0,0,0,0,0,0,0,0,0,0,0,0,0,0,0,0,0,0,0,0,0,0,0,0,0.0177,0.0176,0,0.0149,0.0148,0.0148,0.0132,0.0132,0.0132,0.0131,0.0079,0.0078,0.0077,0,0,0,0,0,0,0,0,0,0,0,0,0,0.02,0.0199,0.0177,0.0176,0.0176,0.0149,0.0148,0.0148,0.0132,0.0132,0.0132,0.0131,0.0079,0.0078,0.0076,0,0,0,0,0,0,0,0,0,0,0,0,0,0.0183,0.0199,0.0177,0.0164,0.0162,0.0149,0.0148,0.0148,0.0132,0.0132,0.0131,0.0131,0.008,0.0078,0.0076,0.0069,0,0,0.007,0.007,0,0,0,0,0,0,0,0,0.0184,0.0183,0.0166,0.0165,0.0163,0.0143,0.0137,0.012,0.0132,0.0144,0.0131,0.0131,0.0098,0.0094,0.0091,0.0067,0.0064,0.007,0.0069,0.0068,0.0068,0,0,0,0,0,0,0,0.0186,0.0184,0.0167,0.0166,0.0164,0.0154,0.0151,0.0134,0.0123,0.0143,0.0142,0.0137,0.0097,0.0093,0.009,0.0064,0.007,0.0069,0.0068,0.0067,0.0019,0.0019,0,0,0,0,0,0,0.0188,0.0185,0.0167,0.0166,0.0172,0.0153,0.0151,0.015,0.0124,0.0119,0.0138,0.0137,0.0096,0.0092,0.0088,0.008,0.0068,0.0067,0.0066,0.002,0.0019,0.0019,0,0,0,0,0,0,0.0189,0.0187,0.0169,0.0174,0.017,0.0153,0.0153,0.015,0.0145,0.0119,0.0115,0.0136,0.0096,0.009,0.0068,0.0077,0.0066,0.0064,0.002,0.0019,0.0019,0.0062,0,0,0,0,0,0,0.019,0.0188,0.0188,0.0174,0.017,0.0162,0.0153,0.0149,0.0142,0.0141,0.0116,0.0111,0.0095,0.0071,0.0066,0.0074,0.0063,0.002,0.002,0.0019,0.006,0.0063,0.0065,0,0,0,0,0,0.0191,0.0194,0.0188,0.0186,0.0172,0.0162,0.0159,0.0147,0.0143,0.0142,0.0121,0.0112,0.0066,0.0069,0.0064,0.0072,0.002,0.002,0.0019,0.0059,0.0062,0.0065,0,0,0,0,0,0,0.02,0.0192,0.0186,0.0185,0.0174,0.0159,0.0157,0.0149,0.0133,0.0131,0.0108,0.0101,0.0085,0.0069,0.0073,0.0056,0.0043,0.0041,0.0075,0.0078,0.008,0.0092,0.0061,0,0,0,0,0,0.0203,0.0206,0.0192,0.0191,0.0188,0.0173,0.0167,0.0159,0.0143,0.0136,0.012,0.0099,0.008,0.0071,0.0051,0.0042,0.0024,0.0043,0.0045,0.0047,0.0052,0.0031,0.0032,0.0018,0.0018,0.0018,0,0,0.0205,0.0201,0.0202,0.0194,0.0185,0.0183,0.017,0.0163,0.0163,0.0132,0.0127,0.0105,0.0078,0.0067,0.0059,0.0055,0.0041,0.0047,0.0049,0.0053,0.0031,0.0032,0.0033,0.0018,0.0018,0.0018,0,0,0.0212,0.0209,0.0214,0.0209,0.0198,0.019,0.0189,0.0176,0.0173,0.016,0.014,0.0124,0.0095,0.0084,0.0072,0.0074,0.0051,0.0066,0.0092,0.0071,0.0072,0.0073,0.0051,0.005,0.0071,0.0071,0.0071,0,0.0214,0.0219,0.0212,0.0215,0.0214,0.0195,0.02,0.0193,0.0174,0.0176,0.0161,0.0129,0.0105,0.0099,0.0097,0.0082,0.0062,0.0086,0.0075,0.0076,0.0076,0.0053,0.0051,0.0073,0.0072,0.0072,0.0072,0,0.0224,0.0229,0.0232,0.0232,0.0229,0.0231,0.0221,0.0222,0.0213,0.0204,0.0195,0.0164,0.0149,0.0138,0.0115,0.011,0.0092,0.008,0.0073,0.008,0.0055,0.0053,0.0075,0.0075,0.0074,0.0074,0,0,0.0233,0.0238,0.0241,0.0251,0.0242,0.0246,0.0249,0.0251,0.0265,0.024,0.0254,0.0215,0.0203,0.0188,0.0165,0.0144,0.0124,0.0113,0.0111,0.0099,0.0074,0.0044,0.0038,0.0108,0.0107,0.0107,0.0056,0,0.0245,0.0261,0.0258,0.0276,0.0285,0.028,0.0292,0.0291,0.0285,0.0293,0.0266,0.0261,0.0222,0.0218,0.0192,0.0143,0.0118,0.0139,0.0062,0.0059,0.0038,0.0035,0.0106,0.0054,0.0053,0.0053,0.0052,0,0.0257,0.0269,0.0288,0.0315,0.032,0.0331,0.0357,0.0365,0.0367,0.0364,0.0352,0.0323,0.0296,0.026,0.0184,0.0197,0.0139,0.0096,0.0092,0.0049,0.0024,0.0043,0.0047,0.0047,0.0048,0.0048,0.0048,0,0.0274,0.0295,0.0315,0.0321,0.0341,0.0362,0.0379,0.0389,0.0412,0.0412,0.042,0.0378,0.0366,0.0288,0.019,0.0186,0.01,0.0086,0.0005,0.0002,0.0027,0.0026,0.0029,0.0029,0.0029,0.0029,0.0029,0,0.029,0.0311,0.0332,0.0345,0.0389,0.0395,0.0443,0.0455,0.0479,0.0506,0.0462,0.0462,0.0369,0.0304,0.0209,0.0097,0.0113,0.0008,-0.0014,0.0044,0.0046,0.0024,0.0024,0.0027,0.0028,0.0028,0.0028,0,0.0304,0.0313,0.0346,0.038,0.0397,0.0432,0.0492,0.0528,0.0541,0.0575,0.0576,0.053,0.0439,0.0333,0.021,0.0128,0.002,-0.0026,0.0045,0.0029,-0.0069,-0.0066,-0.0115,-0.0117,-0.0118,-0.0119,-0.012,0,0.0312,0.0327,0.0374,0.0401,0.0422,0.0477,0.0519,0.0558,0.0594,0.0606,0.0622,0.0552,0.0499,0.0312,0.0193,0.0018,-0.0015,-0.0069,-0.0074,-0.0068,-0.0083,-0.0079,-0.0074,-0.0122,-0.0122,-0.0122,-0.0123,0,0.0331,0.0347,0.0375,0.0429,0.0479,0.0536,0.0597,0.0627,0.0666,0.0679,0.065,0.0549,0.045,0.0304,0.0169,0.0039,-0.0031,-0.0083,-0.0081,-0.0086,-0.0077,-0.009,-0.0084,-0.0127,-0.0126,-0.0126,-0.0126,0,0.0349,0.0372,0.0408,0.0457,0.0519,0.0575,0.0607,0.0644,0.0679,0.0689,0.0672,0.0561,0.0506,0.0313,0.0185,0.0059,0.0022,-0.0024,-0.0026,-0.0023,0.0012,0.0038,0.0004,0,0,0,0,0,0.0364,0.0387,0.0433,0.0486,0.0548,0.0583,0.0651,0.0677,0.071,0.0693,0.0686,0.0585,0.0394,0.0316,0.0184,0.0152,-0.0003,-0.0009,-0.0057,-0.0151,-0.0146,-0.0125,0,0,0,0,0,0,0.0374,0.0414,0.0432,0.0502,0.054,0.0611,0.0654,0.0675,0.0666,0.0675,0.0579,0.0538,0.0358,0.0468,0.0177,0.014,0.0086,-0.009,-0.0094,-0.0154,-0.0149,-0.0145,-0.0122,0,0,0,0,0]}]]